Location: Cointrin
(46.2167°N, 6.1167°E)
Time: 08:31:31
(UTC+00:00)

SJ-6B - Pass Details

Date: 08 February 2023
Orbit: 501 x 570 km, 97.5° (Epoch: 26 March)

Event Time Altitude Azimuth Distance (km) Brightness Sun altitude
Exits shadow 18:46:46 37° 26° (NNE) 878 3.6 -20.5°
Drops below altitude 10° 18:49:35 10° 358° (N) 1,866 5.5 -21.0°
Sets 18:51:48 0° 353° (N) 2,776 6.5 -21.4°
